• In Hungary
  • List of Countries
  • For 7 days
  • Water Temperature
  • Satellite Maps
  • Weather Map
  • News
  • Weather Widgets
  • user-avatar
    Login

    Hourly Weather Zaafrana

    Today, 20 September, Thursday

    Time Temperature Precipitation Wind Pressure Humidity
    00:00 +28°C° 0 mm 3 mps 744 mmHg 48%
    01:00 +27°C° 0 mm 3 mps 745 mmHg 51%
    02:00 +27°C° 0 mm 3 mps 745 mmHg 54%
    03:00 +26°C° 0 mm 3 mps 745 mmHg 57%
    04:00 +26°C° 0 mm 3 mps 745 mmHg 60%
    05:00 +25°C° 0 mm 3 mps 745 mmHg 63%
    06:00 +26°C° 0 mm 3 mps 745 mmHg 57%
    07:00 +28°C° 0 mm 3 mps 745 mmHg 52%
    08:00 +29°C° 0 mm 4 mps 745 mmHg 47%
    09:00 +30°C° 0 mm 4 mps 745 mmHg 40%
    10:00 +33°C° 0 mm 4 mps 745 mmHg 33%
    11:00 +34°C° 0 mm 4 mps 745 mmHg 27%
    12:00 +35°C° 0 mm 4 mps 744 mmHg 26%
    13:00 +35°C° 0 mm 5 mps 744 mmHg 24%
    14:00 +36°C° 0 mm 5 mps 743 mmHg 23%
    15:00 +36°C° 0 mm 5 mps 743 mmHg 24%
    16:00 +35°C° 0 mm 4 mps 743 mmHg 26%
    17:00 +35°C° 0 mm 4 mps 743 mmHg 27%
    18:00 +34°C° 0 mm 4 mps 743 mmHg 30%
    19:00 +33°C° 0 mm 3 mps 743 mmHg 32%
    20:00 +30°C° 0 mm 3 mps 744 mmHg 35%
    21:00 +30°C° 0 mm 3 mps 744 mmHg 40%
    22:00 +29°C° 0 mm 4 mps 744 mmHg 44%
    23:00 +28°C° 0 mm 4 mps 744 mmHg 49%

    Tomorrow, 21 September, Friday

    Time Temperature Precipitation Wind Pressure Humidity
    00:00 +28°C° 0 mm 4 mps 744 mmHg 54%
    01:00 +27°C° 0 mm 4 mps 744 mmHg 60%
    02:00 +26°C° 0 mm 3 mps 744 mmHg 66%
    03:00 +26°C° 0 mm 3 mps 744 mmHg 68%
    04:00 +25°C° 0 mm 3 mps 744 mmHg 71%
    05:00 +25°C° 0 mm 3 mps 744 mmHg 73%
    06:00 +26°C° 0 mm 3 mps 744 mmHg 69%
    07:00 +27°C° 0 mm 3 mps 744 mmHg 64%
    08:00 +28°C° 0 mm 4 mps 745 mmHg 59%
    09:00 +29°C° 0 mm 4 mps 745 mmHg 52%
    10:00 +32°C° 0 mm 4 mps 745 mmHg 45%
    11:00 +33°C° 0 mm 4 mps 744 mmHg 37%
    12:00 +34°C° 0 mm 4 mps 744 mmHg 34%
    13:00 +35°C° 0 mm 4 mps 743 mmHg 31%
    14:00 +36°C° 0 mm 4 mps 743 mmHg 28%
    15:00 +36°C° 0 mm 4 mps 743 mmHg 28%
    16:00 +35°C° 0 mm 4 mps 743 mmHg 28%
    17:00 +35°C° 0 mm 5 mps 743 mmHg 28%
    18:00 +34°C° 0 mm 4 mps 743 mmHg 30%
    19:00 +32°C° 0 mm 4 mps 744 mmHg 33%
    20:00 +30°C° 0 mm 3 mps 744 mmHg 35%
    21:00 +29°C° 0 mm 3 mps 744 mmHg 41%
    22:00 +29°C° 0 mm 4 mps 744 mmHg 47%
    23:00 +28°C° 0 mm 4 mps 744 mmHg 52%

    Day after tomorrow, 22 September, Saturday

    Time Temperature Precipitation Wind Pressure Humidity
    00:00 +27°C° 0 mm 3 mps 744 mmHg 56%
    01:00 +27°C° 0 mm 3 mps 744 mmHg 60%
    02:00 +26°C° 0 mm 3 mps 744 mmHg 64%
    03:00 +26°C° 0 mm 3 mps 744 mmHg 66%
    04:00 +25°C° 0 mm 3 mps 744 mmHg 68%
    05:00 +25°C° 0 mm 3 mps 744 mmHg 70%
    06:00 +26°C° 0 mm 3 mps 745 mmHg 65%
    07:00 +27°C° 0 mm 4 mps 745 mmHg 61%
    08:00 +28°C° 0 mm 4 mps 745 mmHg 57%
    09:00 +29°C° 0 mm 4 mps 745 mmHg 49%
    10:00 +32°C° 0 mm 4 mps 745 mmHg 41%
    11:00 +33°C° 0 mm 4 mps 744 mmHg 33%
    12:00 +34°C° 0 mm 4 mps 744 mmHg 30%
    13:00 +35°C° 0 mm 4 mps 744 mmHg 27%
    14:00 +36°C° 0 mm 4 mps 743 mmHg 24%
    15:00 +36°C° 0 mm 4 mps 743 mmHg 24%
    16:00 +35°C° 0 mm 4 mps 743 mmHg 25%
    17:00 +35°C° 0 mm 5 mps 743 mmHg 25%
    18:00 +34°C° 0 mm 4 mps 743 mmHg 30%
    19:00 +32°C° 0 mm 4 mps 744 mmHg 35%
    20:00 +30°C° 0 mm 4 mps 744 mmHg 40%
    21:00 +29°C° 0 mm 4 mps 745 mmHg 46%
    22:00 +28°C° 0 mm 4 mps 745 mmHg 52%
    23:00 +28°C° 0 mm 3 mps 745 mmHg 58%

    23 September, Sunday

    Time Temperature Precipitation Wind Pressure Humidity
    00:00 +27°C° 0 mm 3 mps 745 mmHg 62%
    01:00 +26°C° 0 mm 3 mps 745 mmHg 66%
    02:00 +26°C° 0 mm 3 mps 745 mmHg 70%
    03:00 +25°C° 0 mm 3 mps 745 mmHg 72%
    04:00 +25°C° 0 mm 3 mps 745 mmHg 75%
    05:00 +24°C° 0 mm 3 mps 745 mmHg 77%
    06:00 +25°C° 0 mm 4 mps 745 mmHg 70%
    07:00 +27°C° 0 mm 4 mps 745 mmHg 63%
    08:00 +28°C° 0 mm 4 mps 745 mmHg 57%
    09:00 +29°C° 0 mm 4 mps 745 mmHg 48%
    10:00 +32°C° 0 mm 4 mps 745 mmHg 39%
    11:00 +34°C° 0 mm 5 mps 745 mmHg 30%
    12:00 +35°C° 0 mm 5 mps 744 mmHg 28%
    13:00 +36°C° 0 mm 5 mps 744 mmHg 25%
    14:00 +37°C° 0 mm 5 mps 743 mmHg 23%
    15:00 +36°C° 0 mm 5 mps 743 mmHg 24%
    16:00 +36°C° 0 mm 5 mps 743 mmHg 25%
    17:00 +35°C° 0 mm 5 mps 743 mmHg 26%
    18:00 +34°C° 0 mm 5 mps 744 mmHg 31%
    19:00 +33°C° 0 mm 4 mps 744 mmHg 36%
    20:00 +30°C° 0 mm 4 mps 744 mmHg 41%
    21:00 +29°C° 0 mm 4 mps 745 mmHg 47%
    22:00 +29°C° 0 mm 4 mps 745 mmHg 53%
    23:00 +28°C° 0 mm 3 mps 745 mmHg 59%

    24 September, Monday

    Time Temperature Precipitation Wind Pressure Humidity
    00:00 +27°C° 0 mm 3 mps 744 mmHg 62%
    01:00 +27°C° 0 mm 3 mps 744 mmHg 66%
    02:00 +26°C° 0 mm 3 mps 744 mmHg 69%
    03:00 +26°C° 0 mm 3 mps 744 mmHg 71%
    04:00 +25°C° 0 mm 3 mps 744 mmHg 73%
    05:00 +25°C° 0 mm 3 mps 744 mmHg 74%
    06:00 +26°C° 0 mm 4 mps 744 mmHg 68%
    07:00 +27°C° 0 mm 4 mps 744 mmHg 61%
    08:00 +28°C° 0 mm 4 mps 744 mmHg 55%
    09:00 +30°C° 0 mm 4 mps 744 mmHg 47%
    10:00 +33°C° 0 mm 4 mps 744 mmHg 40%
    11:00 +34°C° 0 mm 4 mps 744 mmHg 32%
    12:00 +35°C° 0 mm 4 mps 743 mmHg 29%
    13:00 +36°C° 0 mm 3 mps 742 mmHg 26%
    14:00 +37°C° 0 mm 3 mps 742 mmHg 23%
    15:00 +37°C° 0 mm 4 mps 742 mmHg 24%
    16:00 +37°C° 0 mm 4 mps 742 mmHg 25%
    17:00 +36°C° 0 mm 4 mps 742 mmHg 26%
    18:00 +35°C° 0 mm 4 mps 742 mmHg 29%
    19:00 +33°C° 0 mm 3 mps 743 mmHg 33%
    20:00 +31°C° 0 mm 3 mps 743 mmHg 37%
    21:00 +30°C° 0 mm 3 mps 743 mmHg 41%
    22:00 +29°C° 0 mm 3 mps 743 mmHg 45%
    23:00 +29°C° 0 mm 3 mps 743 mmHg 49%

    25 September, Tuesday

    Time Temperature Precipitation Wind Pressure Humidity
    00:00 +28°C° 0 mm 3 mps 743 mmHg 52%
    01:00 +28°C° 0 mm 3 mps 743 mmHg 55%
    02:00 +27°C° 0 mm 3 mps 743 mmHg 58%
    03:00 +26°C° 0 mm 3 mps 743 mmHg 59%
    04:00 +26°C° 0 mm 3 mps 743 mmHg 60%
    05:00 +26°C° 0 mm 3 mps 743 mmHg 61%
    06:00 +27°C° 0 mm 3 mps 743 mmHg 56%
    07:00 +28°C° 0 mm 3 mps 743 mmHg 50%
    08:00 +29°C° 0 mm 3 mps 743 mmHg 44%
    09:00 +31°C° 0 mm 3 mps 743 mmHg 38%
    10:00 +34°C° 0 mm 3 mps 743 mmHg 31%
    11:00 +35°C° 0 mm 3 mps 743 mmHg 25%
    12:00 +36°C° 0 mm 3 mps 742 mmHg 23%
    13:00 +37°C° 0 mm 4 mps 742 mmHg 21%
    14:00 +38°C° 0 mm 4 mps 741 mmHg 19%
    15:00 +37°C° 0 mm 4 mps 741 mmHg 20%
    16:00 +37°C° 0 mm 4 mps 741 mmHg 21%
    17:00 +36°C° 0 mm 4 mps 741 mmHg 22%
    18:00 +35°C° 0 mm 3 mps 741 mmHg 25%
    19:00 +33°C° 0 mm 3 mps 742 mmHg 28%
    20:00 +31°C° 0 mm 3 mps 742 mmHg 31%
    21:00 +30°C° 0 mm 3 mps 742 mmHg 35%
    22:00 +29°C° 0 mm 3 mps 742 mmHg 38%
    23:00 +28°C° 0 mm 3 mps 742 mmHg 42%
    Show more